Probability
29 29 29 23 26 23 16 10 10 10 10 6 6 3 0 0 0 0 0 0 0 0 0 0 0 0 0 0 0 0 0 0 0 0 0 0 3 3
26 26 29 23 26 23 16 13 10 10 10 6 6 10 3 0 0 0 0 0 0 0 0 0 0 0 0 0 0 0 0 0 0 0 0 0 0 3
26 26 19 26 23 19 16 13 13 10 10 10 6 3 0 0 0 0 0 0 0 0 0 0 0 0 0 0 0 0 0 0 0 0 0 0 0 0
26 23 23 26 19 16 19 13 6 6 10 6 6 3 0 0 0 0 0 0 0 0 0 0 0 0 0 0 0 0 0 0 0 0 0 0 0 0
29 23 19 19 19 19 16 16 6 6 3 6 6 3 0 0 0 0 0 0 0 0 0 0 0 0 0 0 0 0 0 0 0 0 0 0 0 0
29 26 19 19 19 19 19 13 10 6 6 3 6 3 0 0 0 0 0 0 0 0 0 0 0 0 0 0 0 0 0 0 0 0 0 0 0 0
29 23 19 19 19 19 16 16 10 6 6 6 3 3 0 0 0 0 0 0 0 0 0 0 0 0 0 0 0 0 0 0 0 0 0 0 0 0
23 23 19 19 16 13 13 13 10 13 6 6 3 3 0 0 0 0 0 0 0 0 0 0 0 0 0 0 0 0 0 0 0 0 0 0 0 0
26 19 19 19 16 10 10 6 10 10 10 10 10 3 0 0 0 0 0 0 0 0 0 0 0 0 0 0 0 0 0 0 0 0 0 0 0 0
19 23 19 16 13 13 13 10 3 3 0 0 0 0 0 0 0 0 0 0 0 0 0 0 0 0 0 0 0 0 0 0 0 0 0 0 0 0
16 23 19 16 13 3 10 6 6 6 3 0 0 0 0 0 0 0 0 0 0 0 0 0 0 0 0 0 0 0 0 0 0 0 0 0 0 0
23 13 16 16 16 6 3 3 3 3 3 3 0 0 0 0 0 0 0 0 0 0 0 0 0 0 0 0 0 0 0 0 0 0 0 0 0 0
16 13 13 6 6 3 3 0 3 0 0 3 3 3 0 0 0 0 0 0 0 0 0 0 0 0 0 0 0 0 0 0 0 0 0 0 0 0
16 13 10 3 3 3 3 3 0 0 0 3 3 3 3 0 0 0 0 0 0 0 0 0 0 0 0 0 0 0 0 0 0 0 0 0 0 0
13 6 6 0 0 0 3 0 0 0 0 0 3 3 3 3 0 0 0 0 0 0 0 0 0 0 0 0 0 0 0 0 0 0 0 0 0 0
0 3 0 0 0 0 0 0 0 0 0 0 6 3 3 3 3 3 0 0 0 0 0 0 0 0 0 0 0 0 0 0 0 0 0 0 0 0
3 3 0 0 0 0 0 0 0 0 3 0 0 0 0 3 3 3 3 3 0 0 0 0 0 0 0 0 0 0 0 0 0 0 0 0 0 0
0 3 3 3 3 3 0 0 0 0 0 0 0 0 0 0 0 3 3 3 3 3 0 0 0 0 0 0 0 0 0 0 0 0 0 0 0 0
0 3 3 3 3 3 3 0 0 0 0 0 0 0 0 0 0 0 3 3 3 3 0 0 0 0 0 0 0 0 0 0 0 0 0 0 0 0
0 3 6 6 3 3 3 3 0 0 0 0 0 0 0 0 0 0 3 3 3 0 0 0 0 0 0 0 0 0 0 0 0 0 0 0 0 0
0 0 6 6 6 6 6 3 0 0 0 0 0 0 0 0 0 0 0 0 0 0 0 0 0 0 0 0 0 0 0 0 0 0 0 0 0 0
0 0 0 6 6 6 6 3 0 0 0 0 0 0 0 0 0 0 0 0 0 0 0 0 0 0 0 0 0 0 0 0 0 0 0 0 0 0
3 3 3 3 6 3 3 3 0 0 0 0 0 0 0 0 0 0 0 0 0 0 0 0 0 0 0 0 0 0 0 0 0 0 0 0 0 0
Height
5879 5878 5877 5876 5874 5873 5871 5870 5868 5866 5864 5862 5860 5857 5855 5853 5851 5849 5846 5844 5842 5840 5837 5834 5832 5829 5827 5824 5822 5820 5818 5817 5815 5813 5812 5811 5810 5809
5877 5876 5875 5873 5872 5870 5868 5867 5865 5863 5861 5859 5857 5854 5852 5849 5847 5845 5843 5840 5838 5835 5833 5830 5827 5825 5822 5819 5817 5815 5813 5811 5810 5808 5807 5806 5805 5803
5874 5873 5872 5871 5869 5867 5865 5863 5862 5860 5858 5855 5853 5851 5849 5846 5843 5841 5838 5836 5834 5831 5828 5825 5823 5820 5817 5815 5812 5810 5808 5806 5804 5802 5801 5800 5798 5797
5871 5870 5868 5867 5866 5864 5862 5860 5858 5856 5854 5852 5849 5847 5845 5842 5839 5837 5834 5831 5829 5826 5823 5821 5818 5815 5812 5810 5807 5805 5802 5800 5798 5797 5795 5794 5792 5791
5867 5866 5865 5863 5862 5860 5859 5857 5855 5852 5850 5848 5845 5843 5840 5838 5835 5833 5830 5827 5824 5821 5819 5816 5813 5810 5808 5805 5802 5800 5797 5795 5793 5791 5789 5787 5786 5784
5864 5862 5861 5860 5858 5856 5854 5852 5850 5848 5845 5843 5841 5838 5836 5833 5831 5828 5825 5822 5820 5817 5814 5811 5808 5805 5803 5800 5797 5795 5792 5790 5788 5785 5783 5781 5779 5778
5860 5859 5857 5856 5854 5852 5850 5848 5845 5843 5841 5838 5836 5834 5831 5828 5826 5823 5821 5818 5815 5812 5809 5806 5803 5800 5797 5795 5792 5789 5787 5784 5782 5780 5777 5775 5773 5771
5856 5854 5853 5851 5849 5847 5845 5842 5840 5838 5836 5833 5831 5829 5826 5824 5821 5818 5815 5812 5810 5807 5803 5801 5798 5795 5792 5789 5786 5783 5781 5778 5776 5773 5771 5769 5766 5764
5851 5849 5848 5846 5844 5842 5839 5837 5835 5832 5830 5828 5826 5823 5821 5819 5816 5813 5810 5807 5804 5801 5798 5795 5792 5789 5785 5782 5779 5777 5774 5771 5769 5766 5764 5762 5759 5757
5846 5844 5842 5840 5837 5835 5833 5831 5829 5827 5824 5822 5820 5817 5815 5813 5810 5807 5804 5801 5798 5795 5792 5789 5785 5782 5779 5776 5773 5770 5767 5764 5761 5759 5756 5754 5751 5749
5840 5838 5835 5833 5831 5829 5827 5825 5823 5820 5818 5815 5813 5811 5808 5806 5803 5801 5798 5795 5791 5788 5785 5782 5779 5775 5772 5769 5765 5762 5759 5756 5754 5751 5748 5746 5743 5741
5833 5831 5829 5827 5824 5822 5820 5818 5816 5813 5810 5808 5806 5804 5801 5799 5796 5793 5791 5788 5784 5781 5778 5775 5771 5768 5765 5762 5758 5755 5752 5749 5746 5743 5741 5738 5736 5733
5826 5824 5821 5819 5816 5814 5812 5810 5807 5805 5803 5801 5799 5797 5794 5792 5789 5786 5783 5780 5777 5774 5770 5767 5764 5760 5757 5754 5751 5747 5744 5741 5738 5736 5733 5730 5728 5725
5817 5815 5813 5810 5808 5806 5804 5801 5799 5797 5795 5793 5791 5789 5787 5784 5782 5778 5775 5772 5769 5766 5762 5759 5755 5752 5749 5746 5743 5739 5736 5733 5730 5727 5725 5722 5720 5717
5808 5806 5804 5802 5799 5797 5794 5792 5790 5788 5786 5785 5783 5781 5779 5776 5773 5770 5767 5764 5761 5757 5754 5751 5748 5745 5742 5738 5735 5732 5729 5726 5722 5719 5716 5714 5711 5709
5800 5797 5795 5792 5789 5787 5785 5783 5781 5779 5777 5776 5774 5772 5770 5767 5764 5762 5759 5756 5753 5749 5746 5743 5740 5736 5733 5730 5727 5724 5720 5717 5714 5711 5708 5705 5703 5700
5791 5788 5785 5783 5780 5778 5776 5774 5772 5770 5768 5766 5764 5762 5760 5758 5755 5753 5750 5747 5744 5741 5737 5734 5730 5727 5724 5721 5718 5715 5712 5708 5705 5702 5700 5697 5695 5692
5782 5779 5777 5774 5772 5769 5767 5764 5762 5760 5758 5756 5754 5753 5751 5748 5746 5743 5740 5737 5735 5732 5728 5725 5722 5719 5715 5712 5710 5706 5703 5700 5697 5694 5691 5689 5687 5684
5772 5770 5767 5765 5762 5760 5757 5755 5753 5750 5748 5746 5744 5743 5741 5738 5736 5734 5731 5728 5725 5723 5719 5716 5713 5710 5706 5703 5700 5697 5694 5691 5688 5686 5683 5681 5678 5676
5762 5760 5757 5755 5752 5750 5747 5745 5743 5740 5738 5736 5734 5733 5731 5729 5726 5724 5721 5719 5716 5713 5710 5707 5704 5701 5698 5695 5692 5689 5685 5683 5680 5678 5675 5672 5670 5668
5752 5749 5747 5744 5742 5739 5737 5735 5733 5730 5728 5726 5724 5722 5721 5719 5717 5714 5712 5709 5706 5703 5700 5698 5695 5691 5688 5685 5683 5680 5677 5674 5672 5669 5667 5665 5662 5660
5742 5739 5737 5734 5732 5729 5727 5724 5722 5720 5718 5716 5714 5712 5710 5709 5707 5704 5702 5699 5697 5694 5691 5688 5685 5682 5679 5677 5674 5672 5669 5666 5663 5661 5659 5657 5654 5651
5731 5728 5726 5724 5721 5719 5717 5714 5712 5710 5708 5706 5704 5702 5700 5699 5697 5695 5692 5690 5687 5684 5681 5678 5676 5673 5670 5668 5665 5663 5661 5658 5656 5653 5651 5648 5645 5643
Wind_Speed
8 8 8 8 9 10 11 12 12 13 13 13 13 14 15 15 16 16 16 17 17 17 18 18 18 18 19 18 18 18 18 19 19 19 19 19 19 20
9 9 10 10 11 12 13 13 13 14 14 15 14 15 16 16 16 17 17 18 18 18 19 19 19 19 19 19 19 19 19 19 19 19 19 19 20 20
10 11 12 12 12 13 14 14 15 15 16 16 16 16 17 17 17 18 18 18 18 19 19 19 19 19 20 20 20 20 20 20 20 20 20 20 21 21
11 12 13 13 14 14 15 16 16 16 16 17 17 17 18 17 17 18 18 18 18 18 19 19 20 20 20 20 20 19 20 20 20 19 20 20 22 22
12 13 13 14 15 15 16 16 17 17 18 18 18 18 18 18 18 18 19 19 19 19 20 20 20 20 20 20 20 20 20 20 20 20 21 21 22 22
13 13 14 15 16 16 17 17 18 18 19 19 18 18 19 19 19 19 19 19 20 20 20 21 21 21 21 21 21 20 20 20 20 21 21 21 22 22
14 15 16 16 17 18 18 19 19 19 20 19 19 19 20 20 20 20 20 20 21 21 22 22 22 22 22 22 22 22 21 22 22 22 22 22 22 23
16 17 17 18 19 19 20 21 20 20 21 21 20 20 21 21 21 21 22 22 22 22 23 23 23 24 23 23 24 24 23 23 24 24 24 24 24 24
18 18 19 20 20 21 21 22 21 21 22 22 21 21 21 22 22 22 23 24 23 24 24 24 24 25 25 25 25 25 25 26 26 26 26 26 26 26
22 22 21 21 22 23 24 23 23 23 23 23 23 22 22 22 22 23 24 24 25 25 25 26 26 26 27 26 26 26 26 27 27 27 28 28 28 28
23 24 24 23 24 25 25 24 24 24 24 24 24 23 23 23 23 24 25 26 26 26 27 27 27 27 27 27 27 27 27 28 28 28 28 28 28 28
25 25 26 26 26 27 26 26 26 26 26 25 25 25 26 26 26 26 27 27 28 28 29 29 29 28 28 28 28 28 28 28 28 27 27 27 28 28
27 27 28 29 29 29 29 28 28 28 27 27 27 27 27 27 27 28 28 29 29 28 29 29 28 28 28 28 28 29 29 28 28 28 28 28 28 28
29 29 30 30 30 30 30 30 30 30 29 28 27 27 27 28 28 29 29 30 30 29 29 29 29 28 28 29 29 30 29 28 28 28 29 28 28 29
30 30 31 31 31 31 31 30 31 31 29 29 29 29 29 30 30 30 30 30 30 30 30 30 30 30 29 29 29 29 29 29 29 29 29 29 29 29
32 32 32 33 33 32 32 32 32 32 31 31 31 31 31 31 31 31 32 32 32 30 30 30 30 30 30 30 30 31 31 30 29 30 30 30 29 29
31 31 32 33 33 32 33 32 32 32 32 32 31 31 31 31 32 32 33 33 32 31 31 31 31 31 32 32 31 31 31 30 29 29 29 29 28 29
32 32 32 32 32 32 32 32 32 32 32 32 32 32 32 32 33 33 33 33 32 32 32 31 32 32 33 33 32 31 31 30 30 29 29 28 28 28
32 32 33 33 34 33 33 33 32 32 32 32 32 33 33 33 33 33 32 32 32 32 32 31 32 33 33 32 31 31 30 30 30 29 28 27 27 28
34 34 34 34 34 34 33 33 33 33 32 32 32 33 32 32 32 32 32 32 32 33 32 32 33 33 32 31 30 30 30 29 29 28 28 27 27 27
33 34 34 34 34 33 33 33 33 33 32 31 32 32 32 32 32 32 32 33 33 33 32 32 32 32 31 30 29 29 29 29 28 28 28 28 28 28
34 34 34 33 33 33 33 33 33 32 31 30 32 32 32 31 31 31 32 32 32 31 31 32 32 32 31 30 29 28 28 28 28 28 29 29 29 28
34 34 34 34 33 33 33 32 32 32 31 30 31 31 30 30 31 31 31 32 31 31 31 31 30 30 30 29 28 28 28 28 28 28 28 29 29 30
Wind_Direction
313 315 315 317 316 317 318 316 316 314 315 318 319 318 315 314 310 306 303 302 305 307 306 305 303 303 300 295 292 290 289 287 284 281 277 274 272 271
311 311 312 313 315 315 317 315 314 314 312 313 314 315 313 311 311 308 306 303 303 305 305 304 304 302 302 298 292 288 288 288 286 283 280 276 274 274
308 309 310 312 313 312 311 314 315 312 310 310 309 310 311 309 309 307 308 306 304 305 305 303 303 302 301 299 295 289 287 287 286 283 281 278 277 275
305 307 306 309 310 310 310 311 312 309 308 308 307 308 310 310 309 309 308 307 305 305 305 304 304 303 301 298 297 295 289 287 287 285 282 280 279 278
302 304 305 309 312 310 308 308 309 309 308 307 306 307 308 310 309 309 308 307 304 303 303 304 305 304 301 298 296 295 293 290 288 288 285 282 282 280
303 304 304 306 309 308 306 305 307 307 307 306 306 307 308 309 309 310 310 310 308 306 304 304 305 304 301 297 295 294 293 293 291 290 287 284 282 281
303 302 302 303 305 305 303 302 303 305 305 304 305 307 308 309 307 308 309 308 308 306 304 303 302 302 300 297 295 294 293 292 292 291 290 288 287 286
301 301 300 302 302 302 300 301 302 302 303 301 302 305 307 309 307 306 307 306 305 304 303 301 301 301 299 297 295 293 291 290 290 290 289 289 288 287
298 299 300 300 299 299 300 301 302 302 302 301 301 303 305 308 307 306 306 306 305 303 302 301 301 300 299 297 295 293 291 291 289 288 288 287 287 288
299 299 299 297 297 297 298 299 302 301 301 301 300 301 303 305 305 305 304 303 302 302 302 301 301 300 299 297 296 294 292 291 290 290 289 288 287 288
298 299 297 295 295 296 296 296 299 300 299 300 300 299 300 302 304 304 304 302 301 301 301 301 300 300 299 298 296 295 294 293 292 291 291 290 290 289
295 296 295 295 295 296 295 294 295 296 298 298 298 298 299 299 300 302 302 302 301 301 300 300 299 299 298 298 297 296 296 295 293 293 292 291 290 289
292 292 292 292 292 293 292 293 292 292 294 294 294 296 297 297 298 300 300 301 302 302 301 300 299 299 299 298 297 297 296 295 294 293 292 292 292 291
292 290 290 289 289 290 290 290 290 291 292 292 293 294 295 296 297 299 299 300 302 302 302 301 300 300 299 299 298 297 295 295 294 294 293 292 292 292
292 290 289 288 288 288 289 289 288 290 291 290 291 292 292 293 295 296 298 299 301 300 300 300 300 299 299 299 298 298 297 296 295 293 292 291 292 293
290 289 289 288 287 287 288 288 288 288 288 288 289 290 291 291 293 295 297 298 299 298 299 299 299 298 298 298 298 299 298 297 295 293 292 292 292 292
291 290 290 290 290 292 292 290 289 289 289 289 290 290 291 292 293 294 296 298 298 298 298 299 298 297 297 298 298 298 297 297 295 293 292 293 293 292
291 291 292 293 293 293 291 291 290 289 289 287 287 289 290 291 292 293 295 296 297 297 297 298 298 297 296 296 295 296 297 297 295 293 292 293 294 294
288 290 291 291 290 289 289 289 289 288 288 287 287 288 289 290 291 292 292 293 294 295 296 297 297 297 297 297 296 295 295 295 294 293 293 294 295 295
288 289 290 291 290 289 288 289 288 287 286 286 286 287 289 290 292 293 292 293 294 294 294 296 297 298 297 296 295 295 294 295 294 293 293 293 294 296
288 289 290 290 288 287 288 289 289 287 286 285 286 286 287 289 291 292 293 293 293 292 293 295 296 297 297 296 294 295 295 296 295 294 294 294 294 295
287 288 289 289 287 287 287 288 287 287 287 288 287 286 286 288 290 291 293 294 295 293 293 294 294 295 296 294 294 294 294 295 296 295 294 294 295 295
287 287 287 286 286 287 287 287 288 288 288 288 287 286 286 288 290 291 293 294 294 294 293 293 294 295 294 294 293 293 294 294 294 294 295 295 295 295